Location: Brompton
(51.4000°N, 0.5333°E)
Time: 04:18:54
(UTC+00:00)

USA 215 - Pass Details

Date: 01 October 2021
Orbit: 1093 x 1114 km, 123.0° (Epoch: 14 October)

Event Time Altitude Azimuth Distance (km) Brightness Sun altitude
Exits shadow 21:51:55 26° 250° (WSW) 2,025 4.7 -36.4°
Drops below altitude 10° 21:56:04 10° 288° (WNW) 2,962 6.0 -36.8°
Sets 21:59:01 0° 300° (WNW) 3,926 7.0 -37.1°
